Tracking 28052 objects as of 22-Sep-2023
HD Live streaming from Space Station
objects crossing your sky now

CZ-4C DEB

Track CZ-4C DEB now!
10-day predictions


NORAD ID: 43418
Int'l Code: 2014-080G
Perigee: 880.3 km
Apogee: 1,317.2 km
Inclination: 63.4 °
Period: 107.1 minutes
Semi major axis: 7469 km
RCS: Unknown
Launch date: December 10, 2014
Source: People's Republic of China (PRC)
Launch site: Jiuquan Satellite Launch Center, China (JSC)

Note: This is SATELLITE DEBRIS
Your satellite tracking list
Your tracking list is empty




NASA's NSSDC Master Catalog

Two Line Element Set (TLE):
1 43418U 14080G   23263.71440809  .00000045  00000-0  17818-3 0  9999
2 43418  63.4025  16.8252 0292417   5.7492 354.6771 13.44760162410459
Source of the keplerian elements: AFSPC